Orbital Elements
Epoch 2010 July 23.0 TT = JDT 2455400.5
T 2010 July 6.07909 TT MPC
q 1.8564846 (2000.0) P Q
n 0.13829012 Peri. 354.24803 +0.99775552 +0.06507936
a 3.7034682 Node 2.21284 -0.03234683 +0.67459530
e 0.4987173 Incl. 24.10150 -0.05863115 +0.73531344
P 7.13
From 58 observations 2010 Aug. 6-2011 Jan. 2, mean residual 0".5.
|